Location: ??????
(55.2000°N, 38.3000°E)
Time: 19:09:52
(UTC+00:00)

NOSS 3-1 (C) - Pass Details

Date: 15 November 2025
Orbit: 619 x 1583 km, 63.4° (Epoch: 01 December)

Event Time Altitude Azimuth Distance (km) Brightness Sun altitude
Exits shadow 02:50:30 31° 288° (WNW) 1,420 3.8 -18.1°
Maximum altitude 02:52:45 47° 342° (NNW) 1,155 3.7 -17.7°
Drops below altitude 10° 02:59:09 10° 56° (NE) 2,884 6.6 -16.8°
Sets 03:02:16 0° 62° (ENE) 4,007 7.6 -16.4°
